Regional Weather Roundup
Issued by NWS Sioux Falls, SD

Home | Current Version | Previous Version | Graphics & Text | Print | Product List | Glossary On
Versions: 1 2 3 4 5 6 7 8 9 10 11 12 13 14 15 16 17 18 19 20 21 22 23 24 25 26 27 28 29 30 31 32 33 34 35 36 37 38 39 40 41 42 43 44 45 46 47 48 49 50
000
ASUS43 KFSD 060202
RWRFSD

WEATHER ROUNDUP FOR SE SOUTH DAKOTA/SW MINNESOTA/NW IOWA
NATIONAL WEATHER SERVICE SIOUX FALLS SD
800 PM CST THU MAR 05 2015

NOTE: "FAIR" INDICATES FEW OR NO CLOUDS BELOW 12,000 FEET WITH NO
SIGNIFICANT WEATHER AND OR OBSTRUCTIONS TO VISIBILITY.


SDZ038>040-050-052>070-060300-
SOUTHEAST SOUTH DAKOTA

CITY           SKY/WX    TMP DP  RH WIND       PRES   REMARKS
CHAMBERLAIN    NOT AVBL
HURON          CLEAR     28   8  43 S9        30.15F WCI  19
MADISON        FAIR      18   7  62 S9        30.19F WCI   6
MITCHELL       CLEAR     26   7  44 S9        30.19F WCI  17
SIOUX FALLS    PTCLDY    26   6  42 S15       30.23F WCI  14
WINNER         FAIR      36  14  40 SW6       30.13F
YANKTON        CLOUDY    28   7  40 SE7       30.25F WCI  21
$$

MNZ071-072-080-081-089-090-097-098-060300-
SOUTHWEST MINNESOTA

CITY           SKY/WX    TMP DP  RH WIND       PRES   REMARKS
FAIRMONT       CLEAR     12   3  67 S10       30.33F WCI  -1
JACKSON        CLEAR     18   5  57 S13       30.31F WCI   4
LUVERNE        PTCLDY    21   9  58 S9        30.26F WCI  11
MARSHALL       CLEAR     14   3  62 SE9       30.26F WCI   2
MONTEVIDEO     CLEAR     14   7  73 S8        30.27F WCI   3
PIPESTONE      PTCLDY    19   7  58 S12       30.22F WCI   7
REDWOOD FALLS  CLEAR     15   5  64 SE14      30.30F WCI   0
TRACY          CLEAR     20   8  59 S15       30.25F WCI   6
WINDOM         CLEAR     16   7  67 S8        30.29F WCI   5
WORTHINGTON    CLEAR     16   3  57 S14       30.29F WCI   1
$$

IAZ001>003-012>014-020>022-031-032-NEZ013-014-SDZ071-060300-
NORTHWEST IOWA

CITY           SKY/WX    TMP DP  RH WIND       PRES   REMARKS
DENISON        FAIR      19   5  53 SE10      30.36F WCI   8
ESTHERVILLE    CLEAR     14   5  67 S14       30.33F WCI  -1
SIOUX CITY     CLEAR     24   7  48 SE12      30.32F WCI  13
SPENCER        CLEAR     16   5  62 S13       30.33F WCI   2
$$

ABBREVIATIONS USED IN REMARKS
   TC - TEMPERATURE IN CELSIUS
  WCI - WIND CHILL INDEX
   HX - HEAT INDEX
  VSB - VISIBILITY




USA.gov is the U.S. government's official web portal to all federal, state and local government web resources and services.